Location: Banios
(43.0451°N, 0.2335°E)
Time: 14:01:15
(UTC+00:00)

Transit 4A - All Passes

Search period start: 08 May 2021 00:00
Search period end: 18 May 2021 00:00
Orbit: 870 x 974 km, 66.8° (Epoch: 07 May)

Date Brightness Start Highest point End Pass type
(mag) Time Alt. Az. Time Alt. Az. Time Alt. Az.
08 May - 02:06:32 10° N 02:09:57 15° NE 02:13:19 10° ENE visible
08 May - 03:51:38 10° NNW 03:57:29 66° ENE 04:03:15 10° SE visible
08 May - 05:39:07 10° WNW 05:43:14 20° WSW 05:47:20 10° SSW daylight
08 May - 17:17:43 10° ESE 17:19:37 11° E 17:21:30 10° E daylight
08 May - 18:58:47 10° SSW 19:04:59 76° ESE 19:11:02 10° NE daylight
08 May - 20:47:05 10° W 20:51:57 24° NW 20:56:44 10° N visible
09 May - 02:15:24 10° N 02:19:41 20° NE 02:23:55 10° E visible
09 May - 04:00:55 10° NNW 04:06:49 87° WSW 04:12:37 10° SSE visible
09 May - 05:49:48 10° WNW 05:52:13 13° WSW 05:54:37 10° SW daylight
09 May - 17:24:33 10° SE 17:28:35 18° ESE 17:32:35 10° ENE daylight
09 May - 19:08:05 10° SW 19:14:17 77° WNW 19:20:21 10° NNE daylight
09 May - 20:57:33 10° W 21:01:37 18° NW 21:05:40 10° N visible
10 May - 02:24:23 10° NNW 02:29:19 27° NE 02:34:12 10° ESE visible
10 May - 04:10:19 10° NW 04:16:03 59° WSW 04:21:44 10° SSE visible
10 May - 17:32:33 10° SSE 17:37:38 27° ESE 17:42:39 10° NE daylight
10 May - 19:17:36 10° SW 19:23:39 54° NW 19:29:35 10° NNE daylight
10 May - 21:08:22 10° WNW 21:11:25 14° NNW 21:14:26 10° N visible
11 May - 00:50:08 10° NNE 00:50:39 10° NNE 00:51:09 10° NNE visible
11 May - 02:33:28 10° NNW 02:38:52 37° NE 02:44:12 10° ESE visible
11 May - 04:19:51 10° NW 04:25:13 39° WSW 04:30:34 10° S daylight
11 May - 17:41:02 10° S 17:46:45 40° ESE 17:52:22 10° NE daylight
11 May - 19:27:24 10° WSW 19:33:07 39° NW 19:38:45 10° NNE daylight
11 May - 21:19:52 10° NW 21:21:16 11° NNW 21:22:42 10° NNW visible
12 May - 00:57:52 10° N 01:00:33 13° NNE 01:03:10 10° ENE visible
12 May - 02:42:37 10° NNW 02:48:21 52° NE 02:53:59 10° SE visible
12 May - 04:29:35 10° NW 04:34:19 26° WSW 04:39:02 10° SSW daylight
12 May - 17:49:52 10° SSW 17:55:56 59° ESE 18:01:53 10° NE daylight
12 May - 19:37:26 10° WSW 19:42:40 29° NW 19:47:50 10° NNE visible
13 May - 01:06:36 10° N 01:10:20 17° NE 01:14:01 10° ENE visible
13 May - 02:51:51 10° NNW 02:57:43 75° ENE 03:03:31 10° SE visible
13 May - 04:39:42 10° WNW 04:43:21 17° WSW 04:46:59 10° SW daylight
13 May - 16:16:49 10° SE 16:19:43 14° ESE 16:22:35 10° ENE daylight
13 May - 17:59:00 10° SSW 18:05:12 85° ESE 18:11:16 10° NNE daylight
13 May - 19:47:42 10° W 19:52:18 21° NW 19:56:49 10° N visible
14 May - 01:15:30 10° N 01:20:02 22° NE 01:24:30 10° E visible
14 May - 03:01:10 10° NW 03:07:01 76° WSW 03:12:48 10° SSE visible
14 May - 04:51:14 10° W 04:52:18 10° W 04:53:22 10° WSW daylight
14 May - 16:24:15 10° SSE 16:28:43 21° ESE 16:33:07 10° ENE daylight
14 May - 18:08:23 10° SW 18:14:32 68° WNW 18:20:33 10° NNE daylight
14 May - 19:58:17 10° WNW 20:02:01 16° NW 20:05:42 10° N visible
15 May - 01:24:31 10° NNW 01:29:38 30° NE 01:34:42 10° ESE visible
15 May - 03:10:36 10° NW 03:16:14 51° WSW 03:21:49 10° S visible
15 May - 16:32:27 10° S 16:37:48 31° ESE 16:43:02 10° NE daylight
15 May - 18:18:00 10° SW 18:23:56 48° NW 18:29:45 10° NNE daylight
15 May - 20:09:17 10° NW 20:11:50 13° NNW 20:14:21 10° N visible
15 May - 23:49:30 10° N 23:51:05 11° NNE 23:52:41 10° NE visible
16 May - 01:33:37 10° NNW 01:39:09 41° NE 01:44:38 10° ESE visible
16 May - 03:20:11 10° NW 03:25:22 34° WSW 03:30:32 10° S visible
16 May - 16:41:05 10° S 16:46:56 46° ESE 16:52:40 10° NE daylight
16 May - 18:27:52 10° WSW 18:33:25 35° NW 18:38:53 10° NNE daylight
16 May - 23:57:52 10° N 00:00:56 14° NNE 00:03:59 10° ENE visible
17 May - 01:42:48 10° NNW 01:48:35 59° NE 01:54:19 10° SE visible
17 May - 03:30:02 10° WNW 03:34:27 23° WSW 03:38:51 10° SSW visible
17 May - 16:50:01 10° SSW 16:56:09 68° ESE 17:02:08 10° NE daylight
17 May - 18:37:59 10° W 18:43:00 26° NW 18:47:56 10° NNE daylight
